, AK

(GMT )
Annette Island

Weather History for PANT - January, 2013

Change the Weather History Date:

Sunday, January 6, 2013

  Actual Average Record
Temperature  
Mean Temperature 40 °F 37 °F  
Max Temperature 42 °F 41 °F 60 °F (1958)
Min Temperature 37 °F 32 °F 5 °F (1978)
Degree Days  
Heating Degree Days 25 28  
Month to date heating degree days 137 168  
Since 1 July heating degree days 3180 3079  
Cooling Degree Days 0    
Month to date cooling degree days 0  
Year to date cooling degree days 0  
Moisture  
Dew Point 35 °F    
Average Humidity 0    
Maximum Humidity 0    
Minimum Humidity 0    
Precipitation  
Precipitation 0.17 in 0.35 in 2.51 in (1963)
Month to date precipitation 3.29 2.14  
Year to date precipitation 3.29 2.14  
Snow  
Snow 0.00 in 0.20 in 3.10 in (1969)
Month to date snowfall 0.0 1.5  
Since 1 July snowfall 11.4 13.2  
Snow Depth 0.00 in    
Sea Level Pressure  
Sea Level Pressure 29.72 in    
Wind  
Wind Speed 9 mph (ESE)    
Max Wind Speed 20 mph    
Max Gust Speed 28 mph    
Visibility 9 miles    
Events Rain    
T = Trace of Precipitation, MM = Missing Value Source: NWS Daily Summary

Daily Weather History Graph

Daily Weather History Graph

Search for Another Location

Airport or City:

Trip Planner

Search our weather history database for the weather conditions in past years. The results will help you decide how hot, cold, wet, or windy it might be!

Date:

Astronomy

Jan. 06, 2013 Rise Set
Actual Time 8:09 AM AKST 3:35 PM AKST
Civil Twilight 7:24 AM AKST 4:20 PM AKST
Nautical Twilight 6:37 AM AKST 5:07 PM AKST
Astronomical Twilight 5:53 AM AKST 5:51 PM AKST
Moon 2:08 AM AKST (1/6) 11:26 AM AKST (1/6)
Length of Visible Light 8h 55m
Length of Day
7h 26m
Waning Crescent, 31% of the Moon is Illuminated
Jan 6
Waning Crescent
Jan 11
New
Jan 18
First Quarter
Jan 26
Full
Feb 3
Last Quarter

Hourly Weather History & Observations

Time (AKST) Temp. Windchill Dew Point Humidity Pressure Visibility Wind Dir Wind Speed Gust Speed Precip Events Conditions
12:42 AM 39.2 °F 34.2 °F 33.8 °F 81% 29.70 in 10.0 mi ESE 6.9 mph - 0.00 in   Overcast
12:53 AM 39.9 °F 35.8 °F 34.0 °F 79% 29.71 in 10.0 mi ESE 5.8 mph - 0.00 in   Overcast
1:53 AM 37.9 °F 33.5 °F 34.0 °F 86% 29.73 in 10.0 mi SE 5.8 mph - N/A   Overcast
2:45 AM 39.2 °F 37.0 °F 33.8 °F 81% 29.74 in 10.0 mi SE 3.5 mph - N/A   Overcast
3:37 AM 37.4 °F 32.8 °F 35.6 °F 93% 29.75 in 10.0 mi ESE 5.8 mph - 0.00 in Rain Light Rain
3:53 AM 37.9 °F 32.7 °F 35.1 °F 89% 29.76 in 10.0 mi SE 6.9 mph - 0.00 in   Overcast
4:53 AM 37.9 °F 34.4 °F 35.1 °F 89% 29.76 in 10.0 mi ESE 4.6 mph - N/A   Overcast
5:28 AM 37.4 °F 34.9 °F 33.8 °F 87% 29.75 in 10.0 mi ESE 3.5 mph - N/A   Scattered Clouds
5:53 AM 37.9 °F 34.4 °F 33.1 °F 83% 29.77 in 10.0 mi ESE 4.6 mph - N/A   Scattered Clouds
6:28 AM 37.4 °F 34.9 °F 33.8 °F 87% 29.76 in 10.0 mi ESE 3.5 mph - N/A   Mostly Cloudy
6:42 AM 37.4 °F - 33.8 °F 87% 29.77 in 10.0 mi Calm Calm - N/A   Scattered Clouds
6:53 AM 37.0 °F 33.3 °F 33.1 °F 86% 29.77 in 10.0 mi ESE 4.6 mph - N/A   Partly Cloudy
7:51 AM 37.4 °F 32.8 °F 33.8 °F 87% 29.77 in 10.0 mi SE 5.8 mph - N/A   Mostly Cloudy
7:53 AM 37.9 °F 34.4 °F 33.1 °F 83% 29.78 in 10.0 mi SE 4.6 mph - N/A   Mostly Cloudy
8:53 AM 39.0 °F 35.7 °F 34.0 °F 82% 29.80 in 10.0 mi Variable 4.6 mph - N/A   Overcast
9:32 AM 39.2 °F 34.2 °F 35.6 °F 87% 29.80 in 10.0 mi ESE 6.9 mph - N/A   Overcast
9:53 AM 37.9 °F 32.1 °F 36.0 °F 93% 29.82 in 9.0 mi ESE 8.1 mph - N/A   Overcast
10:53 AM 39.0 °F 32.8 °F 37.0 °F 93% 29.81 in 4.0 mi ESE 9.2 mph - 0.00 in Rain Light Rain
11:04 AM 39.2 °F 33.0 °F 37.4 °F 93% 29.79 in 6.0 mi ESE 9.2 mph - 0.01 in Rain Light Rain
11:17 AM 39.2 °F 33.0 °F 37.4 °F 93% 29.79 in 10.0 mi ESE 9.2 mph - 0.01 in   Overcast
11:27 AM 39.2 °F 33.0 °F 37.4 °F 93% 29.79 in 10.0 mi ESE 9.2 mph - 0.01 in   Overcast
11:53 AM 39.0 °F 32.3 °F 37.9 °F 96% 29.79 in 4.0 mi ESE 10.4 mph 18.4 mph 0.03 in Rain Light Rain
12:53 PM 39.9 °F 33.9 °F 37.9 °F 93% 29.77 in 8.0 mi SE 9.2 mph - 0.01 in Rain Light Rain
1:03 PM 39.2 °F 34.2 °F 37.4 °F 93% 29.76 in 5.0 mi SE 6.9 mph - 0.01 in Rain Light Rain
1:29 PM 39.2 °F 32.5 °F 37.4 °F 93% 29.75 in 10.0 mi ESE 10.4 mph - 0.01 in   Overcast
1:50 PM 39.2 °F 32.5 °F 37.4 °F 93% 29.75 in 10.0 mi ESE 10.4 mph - 0.01 in   Overcast
1:53 PM 39.9 °F 32.9 °F 37.0 °F 89% 29.76 in 10.0 mi ESE 11.5 mph - 0.01 in   Overcast
2:09 PM 39.2 °F 32.5 °F 37.4 °F 93% 29.76 in 10.0 mi ESE 10.4 mph - N/A   Overcast
2:53 PM 41.0 °F 34.3 °F 36.0 °F 82% 29.76 in 10.0 mi ESE 11.5 mph - N/A   Overcast
3:07 PM 41.0 °F 35.2 °F 35.6 °F 81% 29.75 in 10.0 mi ESE 9.2 mph - N/A   Overcast
3:17 PM 41.0 °F 34.3 °F 35.6 °F 81% 29.74 in 10.0 mi ESE 11.5 mph 18.4 mph N/A   Overcast
3:53 PM 41.0 °F 34.7 °F 35.1 °F 79% 29.71 in 10.0 mi ESE 10.4 mph 20.7 mph N/A   Overcast
4:53 PM 41.0 °F 34.3 °F 35.1 °F 79% 29.69 in 10.0 mi ESE 11.5 mph - N/A   Overcast
5:50 PM 41.0 °F 34.7 °F 33.8 °F 76% 29.65 in 10.0 mi ESE 10.4 mph 18.4 mph N/A   Overcast
6:53 PM 41.0 °F 33.1 °F 34.0 °F 76% 29.63 in 10.0 mi ESE 15.0 mph 19.6 mph 0.01 in Rain Light Rain
7:53 PM 39.0 °F 31.0 °F 35.1 °F 86% 29.58 in 10.0 mi ESE 13.8 mph 21.9 mph 0.06 in Rain Light Rain
8:53 PM 41.0 °F 33.5 °F 36.0 °F 82% 29.55 in 10.0 mi ESE 13.8 mph 21.9 mph 0.03 in Rain Light Rain
9:53 PM 39.9 °F 32.1 °F 36.0 °F 86% 29.51 in 10.0 mi ESE 13.8 mph 23.0 mph 0.02 in   Overcast
10:36 PM 41.0 °F 34.3 °F 35.6 °F 81% 29.48 in 10.0 mi ESE 11.5 mph 20.7 mph N/A   Overcast
10:53 PM 41.0 °F 33.5 °F 36.0 °F 82% 29.49 in 9.0 mi ESE 13.8 mph 21.9 mph N/A   Overcast
11:53 PM 41.0 °F 32.8 °F 36.0 °F 82% 29.48 in 8.0 mi ESE 16.1 mph 25.3 mph N/A   Overcast